This is the latest recevied weather packets stored in our database for station/object EA3AGY-13. If no packets are shown the sender has not sent any weather packets the latest 10 day(s).
| Time | Temp. | Humidity | Pressure | Rain* | Wind** | Luminosity | Snow |
|---|---|---|---|---|---|---|---|
| 1777560279 | 15.56° C | 30% | 1017.1 hPa | 0 mm | - | - | - |
| 1777558473 | 15.56° C | 30% | 1016.9 hPa | 0 mm | - | - | - |
| 1777556062 | 15.56° C | 29% | 1016.7 hPa | 0 mm | - | - | - |
| 1777555460 | 14.44° C | 27% | 1016.7 hPa | 0 mm | - | - | - |
| 1777554859 | 14.44° C | 30% | 1016.9 hPa | 0 mm | - | - | - |
| 1777554256 | 14.44° C | 28% | 1016.8 hPa | 0 mm | - | - | - |
| 1777553653 | 14.44° C | 26% | 1016.8 hPa | 0 mm | - | - | - |
| 1777553051 | 14.44° C | 28% | 1016.8 hPa | 0 mm | - | - | - |
| 1777552450 | 15.56° C | 28% | 1016.8 hPa | 0 mm | - | - | - |
| 1777551846 | 15° C | 27% | 1016.8 hPa | 0 mm | - | - | - |
| 1777551243 | 15° C | 30% | 1016.8 hPa | 0 mm | - | - | - |
| 1777545823 | 15° C | 27% | 1016.8 hPa | 0 mm | - | - | - |
| 1777545220 | 15° C | 28% | 1016.8 hPa | 0 mm | - | - | - |
| 1777544015 | 15° C | 32% | 1016.6 hPa | 0 mm | - | - | - |
| 1777543413 | 15° C | 32% | 1016.6 hPa | 0 mm | - | - | - |
| 1777542810 | 15° C | 33% | 1016.7 hPa | 0 mm | - | - | - |
| 1777539798 | 13.89° C | 33% | 1016.3 hPa | 0 mm | - | - | - |
| 1777539197 | 13.89° C | 33% | 1016.2 hPa | 0 mm | - | - | - |
| 1777534980 | 13.89° C | 39% | 1015.8 hPa | 0 mm | - | - | - |
| 1777534377 | 13.33° C | 39% | 1015.8 hPa | 0 mm | - | - | - |
| 1777533776 | 12.78° C | 39% | 1015.8 hPa | 0 mm | - | - | - |
| 1777533175 | 11.67° C | 38% | 1015.7 hPa | 0 mm | - | - | - |
| 1777528956 | 10.56° C | 44% | 1015.5 hPa | 0 mm | - | - | - |
| 1777528353 | 10° C | 43% | 1015.2 hPa | 0 mm | - | - | - |
| 1777527751 | 9.44° C | 45% | 1015.2 hPa | 0 mm | - | - | - |
* Rain since midnight (hover to see other rain measurements)
** Current wind speed in m/s (hover to see current wind gust speed)